Armorel, AR

1:20 PM CDT on September 26, 2016 (GMT -0500)
Blytheville Municipal

Weather History for KHKA - December, 2011

Change the Weather History Date:

Tuesday, December 13, 2011

  Actual Average Record
Temperature  
Mean Temperature 50 °F -  
Max Temperature 55 °F 50 °F 73 °F (2015)
Min Temperature 45 °F 35 °F 2 °F (1962)
Degree Days  
Heating Degree Days 15    
Moisture  
Dew Point 45 °F    
Average Humidity 85    
Maximum Humidity 94    
Minimum Humidity 69    
Precipitation  
Precipitation 0.00 in - - ()
Sea Level Pressure  
Sea Level Pressure 30.38 in    
Wind  
Wind Speed 4 mph (SE)    
Max Wind Speed 9 mph    
Max Gust Speed -    
Visibility 8 miles    
Events Rain    
Averages and records for this station are not official NWS values.
T = Trace of Precipitation, MM = Missing Value Source: NWS Daily Summary

Daily Weather History Graph

Daily Weather History Graph

Search for Another Location

Airport or City:

Trip Planner

Search our weather history database for the weather conditions in past years. The results will help you decide how hot, cold, wet, or windy it might be!

Date:

Astronomy

Dec. 13, 2011 Rise Set
Actual Time 7:00 AM CST 4:45 PM CST
Civil Twilight 6:32 AM CST 5:14 PM CST
Nautical Twilight 6:00 AM CST 5:46 PM CST
Astronomical Twilight 5:29 AM CST 6:17 PM CST
Moon 7:57 PM CST (12/13) 9:14 AM CST (12/13)
Length of Visible Light 10h 42m
Length of Day
9h 45m
Waning Gibbous, 90% of the Moon is Illuminated
Dec 13
Waning Gibbous
Dec 17
Last Quarter
Dec 24
New
Jan 1
First Quarter
Jan 9
Full

Hourly Weather History & Observations

Time (CST) Temp. Windchill Dew Point Humidity Pressure Visibility Wind Dir Wind Speed Gust Speed Precip Events Conditions
12:53 AM 46.9 °F - 39.9 °F 77% 30.39 in 10.0 mi South 5.8 mph - N/A   Mostly Cloudy
1:53 AM 46.0 °F - 39.9 °F 79% 30.41 in 10.0 mi Calm Calm - N/A   Overcast
2:53 AM 45.0 °F - 41.0 °F 86% 30.41 in 9.0 mi Calm Calm - N/A   Overcast
3:53 AM 45.0 °F - 41.0 °F 86% 30.41 in 9.0 mi Calm Calm - N/A   Overcast
4:53 AM 45.0 °F - 41.0 °F 86% 30.41 in 8.0 mi Calm Calm - N/A   Overcast
5:53 AM 45.0 °F 42.6 °F 42.1 °F 90% 30.42 in 7.0 mi ENE 4.6 mph - 0.00 in Rain Light Rain
6:53 AM 45.0 °F 42.6 °F 42.1 °F 90% 30.44 in 5.0 mi East 4.6 mph - 0.00 in Rain Light Rain
7:53 AM 46.0 °F - 43.0 °F 89% 30.46 in 4.0 mi Calm Calm - 0.00 in   Overcast
8:53 AM 48.0 °F - 44.1 °F 86% 30.47 in 5.0 mi East 5.8 mph - N/A   Overcast
9:53 AM 48.9 °F - 46.0 °F 90% 30.49 in 4.0 mi SE 3.5 mph - 0.00 in   Mostly Cloudy
10:53 AM 50.0 °F - 46.0 °F 86% 30.47 in 5.0 mi ESE 6.9 mph - N/A   Scattered Clouds
11:53 AM 51.1 °F - 46.9 °F 86% 30.44 in 8.0 mi SE 6.9 mph - N/A   Overcast
12:53 PM 53.1 °F - 46.9 °F 80% 30.40 in 8.0 mi ESE 5.8 mph - N/A   Partly Cloudy
1:53 PM 55.0 °F - 46.0 °F 72% 30.37 in 10.0 mi East 6.9 mph - N/A   Clear
2:53 PM 55.9 °F - 46.0 °F 69% 30.36 in 10.0 mi ESE 5.8 mph - N/A   Clear
3:53 PM 55.0 °F - 46.0 °F 72% 30.36 in 10.0 mi ENE 3.5 mph - N/A   Clear
4:53 PM 50.0 °F - 45.0 °F 83% 30.36 in 8.0 mi ENE 3.5 mph - N/A   Clear
5:53 PM 48.0 °F - 45.0 °F 89% 30.37 in 7.0 mi East 3.5 mph - N/A   Clear
6:53 PM 50.0 °F - 45.0 °F 83% 30.35 in 10.0 mi SSE 5.8 mph - N/A   Clear
7:53 PM 48.9 °F - 45.0 °F 86% 30.34 in 9.0 mi SSE 5.8 mph - N/A   Clear
8:53 PM 48.9 °F - 45.0 °F 86% 30.34 in 9.0 mi South 6.9 mph - N/A   Clear
9:53 PM 50.0 °F - 46.9 °F 89% 30.32 in 8.0 mi South 9.2 mph - N/A   Clear
10:49 PM 48.2 °F - 46.4 °F 93% 30.32 in 6.0 mi South 6.9 mph - N/A   Partly Cloudy
10:53 PM 48.9 °F - 46.9 °F 93% 30.32 in 7.0 mi South 6.9 mph - N/A   Scattered Clouds
11:03 PM 48.2 °F - 46.4 °F 93% 30.31 in 7.0 mi South 8.1 mph - N/A   Mostly Cloudy
11:14 PM 50.0 °F - 48.2 °F 94% 30.31 in 7.0 mi South 8.1 mph - N/A   Overcast
11:53 PM 50.0 °F - 48.0 °F 93% 30.31 in 6.0 mi South 8.1 mph - N/A   Overcast